Location: Knobs
(40.8333°S, 175.2333°E)
Time: 01:33:42
(UTC+00:00)

Centaur D-1A AC-31 - Pass Details

Date: 12 June 2024
Orbit: 564 x 36352 km, 27.8° (Epoch: 13 July)

Event Time Altitude Azimuth Distance (km) Brightness Sun altitude
Exits shadow 18:15:37 - 309° (NW) 2,252 3.6 -15.6°
Reaches altitude 10° 18:16:03 10° 314° (NW) 2,120 3.5 -15.5°
Maximum altitude 18:19:36 25° 13° (NNE) 1,976 4.0 -14.9°
Drops below altitude 10° 18:28:06 10° 64° (ENE) 5,330 7.3 -13.3°
Sets 18:38:19 0° 73° (ENE) 9,508 9.3 -11.5°
